CW7575 Weather Reports


time (UTC)temp
C
wind
direction
speed
KPH
gust
KPH
rain 1hr
cm
rain 24hr
cm
rain mn
cm
humidity
%
barometer
mb
20260507044604 13 263 0.0 0.0 0.00 0.18 0.00 94 1005.8
20260507043023 13 360 0.0 0.0 0.00 0.18 0.00 94 1005.7
20260507041553 13 360 0.0 6.4 0.00 0.18 0.00 94 1005.8
20260507040013 14 266 0.0 4.8 0.00 0.18 0.00 95 1005.7
20260507034532 13 192 0.0 6.4 0.00 0.18 0.18 95 1005.9
20260507033050 13 360 1.6 8.0 0.00 0.18 0.18 95 1005.5
20260507031522 13 150 4.8 8.0 0.00 0.18 0.18 95 1005.5
20260507030052 13 360 1.6 6.4 0.00 0.18 0.18 95 1005.7
20260507024526 13 189 3.2 9.7 0.00 0.18 0.18 95 1005.6
20260507023104 13 360 3.2 12.9 0.00 0.18 0.18 95 1005.7
20260507021523 13 158 6.4 12.9 0.00 0.18 0.18 95 1005.5
20260507020059 13 209 4.8 14.5 0.00 0.18 0.18 95 1005.6
20260507014528 13 144 3.2 11.3 0.00 0.18 0.18 95 1005.5
20260507013100 13 360 4.8 11.3 0.00 0.18 0.18 95 1005.3
20260507013003 13 196 4.8 11.3 0.00 0.18 0.18 95 1005.2
20260507011539 13 155 4.8 11.3 0.00 0.18 0.18 95 1005.5
20260507010059 13 190 3.2 9.7 0.00 0.18 0.18 95 1005.7
20260507004536 13 360 3.2 9.7 0.00 0.18 0.18 95 1005.9
20260507003114 13 198 4.8 12.9 0.00 0.18 0.18 95 1005.8
20260507001550 13 213 3.2 16.1 0.00 0.18 0.18 95 1005.7
20260507000055 13 172 3.2 17.7 0.00 0.18 0.18 94 1005.5
20260506234519 13 204 6.4 16.1 0.00 0.18 0.18 94 1005.6
20260506233043 13 360 3.2 14.5 0.03 0.18 0.18 94 1005.4
20260506231519 13 187 9.7 16.1 0.03 0.18 0.18 94 1005.4
20260506230052 13 360 3.2 16.1 0.05 0.18 0.18 93 1005.3
20260506224512 13 155 4.8 14.5 0.05 0.18 0.18 93 1005.3
20260506223032 14 165 4.8 14.5 0.03 0.15 0.15 93 1005.3
20260506221508 14 360 8.0 17.7 0.03 0.15 0.15 93 1005.2
20260506220036 14 217 8.0 17.7 0.00 0.13 0.13 93 1005.1
20260506214555 14 360 4.8 14.5 0.00 0.13 0.13 93 1005.2
20260506213021 14 360 8.0 19.3 0.00 0.13 0.13 92 1005.5
20260506211547 14 208 4.8 14.5 0.00 0.13 0.13 92 1005.7
20260506210044 14 188 1.6 17.7 0.00 0.13 0.13 91 1005.7
20260506204547 15 360 6.4 24.1 0.00 0.13 0.13 91 1006.0
20260506203017 15 192 6.4 16.1 0.00 0.13 0.13 91 1005.9
20260506201541 14 360 8.0 20.9 0.05 0.13 0.13 91 1006.1
20260506200012 14 360 8.0 22.5 0.10 0.13 0.13 91 1006.2
20260506194531 14 194 4.8 17.7 0.10 0.13 0.13 91 1006.3
20260506193106 15 360 9.7 17.7 0.13 0.13 0.13 90 1006.5
20260506191529 15 360 3.2 24.1 0.08 0.08 0.10 89 1006.6
20260506190054 15 190 6.4 16.1 0.03 0.03 0.03 87 1006.4
20260506184527 15 360 8.0 17.7 0.03 0.03 0.03 86 1006.6
20260506183044 15 196 8.0 17.7 0.00 0.00 0.00 83 1007.0
20260506181527 16 152 6.4 22.5 0.00 0.00 0.00 78 1007.1
20260506180041 17 167 9.7 19.3 0.00 0.00 0.00 75 1007.3
20260506174514 17 138 8.0 17.7 0.00 0.00 0.00 74 1007.3
20260506173046 18 161 8.0 17.7 0.00 0.00 0.00 71 1007.4
20260506171510 18 144 4.8 24.1 0.00 0.00 0.00 71 1007.7
20260506170047 18 227 8.0 24.1 0.00 0.00 0.00 70 1007.6
20260506164528 18 147 9.7 22.5 0.00 0.00 0.00 68 1007.6
20260506163042 19 211 9.7 22.5 0.00 0.00 0.00 68 1007.8
20260506161557 19 163 9.7 22.5 0.00 0.00 0.00 68 1008.1
20260506160035 20 201 9.7 22.5 0.00 0.00 0.00 67 1008.2
20260506154601 20 188 6.4 22.5 0.00 0.00 0.00 66 1008.1
20260506154502 20 144 8.0 20.9 0.00 0.00 0.00 67 1008.1
20260506153034 20 175 9.7 19.3 0.00 0.00 0.00 67 1008.3
20260506151604 19 132 11.3 24.1 0.00 0.00 0.00 68 1008.5
20260506150028 19 141 9.7 27.4 0.00 0.00 0.00 69 1008.5
20260506144544 19 195 9.7 19.3 0.00 0.00 0.00 68 1008.6
20260506143023 18 166 8.0 24.1 0.00 0.00 0.00 70 1008.7
20260506141548 18 173 8.0 27.4 0.00 0.00 0.00 70 1008.7
20260506140026 18 192 11.3 22.5 0.00 0.00 0.00 70 1008.6
20260506134556 18 152 8.0 19.3 0.00 0.00 0.00 72 1008.7
20260506133024 18 219 9.7 24.1 0.00 0.00 0.00 73 1008.8
20260506131603 17 147 8.0 19.3 0.00 0.00 0.00 74 1008.8
20260506130021 17 190 6.4 22.5 0.00 0.00 0.00 77 1009.2
20260506124545 16 185 9.7 17.7 0.00 0.00 0.00 78 1009.1
20260506123018 16 213 8.0 16.1 0.00 0.00 0.00 80 1009.1
20260506121552 15 180 6.4 20.9 0.00 0.00 0.00 82 1009.1
20260506120030 15 200 9.7 20.9 0.00 0.00 0.00 82 1009.2
20260506114548 15 160 11.3 19.3 0.00 0.00 0.00 84 1009.4
20260506113026 14 157 6.4 16.1 0.00 0.00 0.00 86 1009.6
20260506111545 14 156 6.4 16.1 0.00 0.00 0.00 86 1009.6
20260506110016 14 182 8.0 17.7 0.00 0.00 0.00 87 1009.4
20260506104542 13 191 6.4 16.1 0.00 0.00 0.00 86 1009.5
20260506103059 13 154 4.8 12.9 0.00 0.00 0.00 86 1009.4
20260506103005 13 154 4.8 12.9 0.00 0.00 0.00 86 1009.4
20260506101529 14 184 6.4 16.1 0.00 0.00 0.00 86 1009.3
20260506100113 14 161 6.4 16.1 0.00 0.00 0.00 85 1009.3
20260506100002 14 146 6.4 16.1 0.00 0.00 0.00 85 1009.3
20260506094526 14 157 6.4 12.9 0.00 0.00 0.00 85 1009.3
20260506093055 14 146 8.0 19.3 0.00 0.00 0.00 84 1009.3
20260506091520 14 175 6.4 12.9 0.00 0.00 0.00 84 1009.3
20260506090047 14 155 3.2 12.9 0.00 0.00 0.00 84 1009.5
20260506084523 14 174 6.4 17.7 0.00 0.00 0.00 83 1009.4
20260506083037 14 163 6.4 14.5 0.00 0.00 0.00 83 1009.7
20260506081601 14 160 4.8 16.1 0.00 0.00 0.00 83 1009.7
20260506073007 15 159 9.7 16.1 0.00 0.00 0.00 82 1009.7
20260506071533 15 193 6.4 17.7 0.00 0.00 0.00 81 1009.6
20260506061507 15 163 8.0 17.7 0.00 0.00 0.00 79 1009.6
20260506050103 16 140 9.7 24.1 0.00 0.00 0.00 73 1010.0